STARLINK-31948, 59941

Orbit data source: Space-Track

STARLINK-31948, 59941 is a payload satellite owned by SpaceX/Seattle (US) in LEO that was launched on Sat, 01 Jun 2024 UTC via an FALCON 9 launch vehicle from the Air Force Eastern Test Range (AFETR). Payload-class satellites include a variety of spacecraft equipped with specific instruments for various scientific and technological missions. These include communications satellites like Starlink; space stations such as the ISS; scientific satellites like the Hubble; Earth observation satellites from companies like Planet Labs, Umbra, and HawkEye 360; GPS; miniature CubeSats for education and research; and military/defense satellites.

Loading next visibility...
Identifier
59941, 2024-106V
Orbit
LEO
Country
Flag of USUS
Related business
Manufacturer
SpaceX/Seattle
Mission
Operational Commercial Communications
Bus & Motor
STARLINK V2M, Unknown motor
Mass
730 kg wet, ~700 kg dry
Launch date (UTC)
2024-06-01 (2 years ago)
Launch vehicle
FALCON 9
Launch site
Air Force Eastern Test Range (AFETR)
Object type
Payload
Rocket body
Debris
Shape & HBR
Box + 2 Pan, 17.7 m
Radar Cross Section
33.884 m², Large (>1 m²)

Expand to show TLE details & history
Last TLE update: 14 hours ago

TLE from 14 hours ago
0 STARLINK-31948
1 59941U 24106V   25340.47758652  .00016471  00000-0  60620-3 0  9995
2 59941  43.0005 135.6796 0001387 269.1844  90.8849 15.27609010 86308
Epoch: 2025-12-06T11:27Z
TLE epoch observation values (Epoch: 2025-12-06T11:27:43.475Z)
Latitude
0.00001°
Longitude
-111.7563°
Altitude
482.753 km
Speed
7.626 km/s
True Right ascension
09h 02m 43s
True Declination
0° 00' 00"
Sunlit
Object was in full shadow at epoch
Visualization orbit readout
Latitude
Unknown
Longitude
Unknown
Altitude
Unknown
Speed
Unknown
Apparent Right ascension
Unknown
Apparent Declination
Unknown
Sunlit
N/A
Visualization observer readout
Local Sidereal Time
23:23:26
Azimuth
Unknown
Elevation
Unknown
Doppler factor
Unknown
Orbital elements
Apogee altitude
485.859 km
Perigee altitude
483.955 km
Semi-major axis
6,863.044 km
Eccentricity
0.00014
Inclination
43.0005°
RAAN
135.6796°
Arg. of periapsis
269.1844°
True anomaly
90.90079°
Mean anomaly
90.8849°
Eccentric anomaly
90.89285°
Mean motion
3.8174 °/min
Orbital period
94.3 mins
BSTAR
0.0006062
Loading maneuver chart data...
Computing Atmospheric mass density...
Loading historical data...
Loading historical data...
Loading historical data...
Loading historical data...
Loading historical data...
Loading historical data...
Loading historical data...

Documentation

Showing up to 5 results
|